Lapse_Rate
5.6 5.5 5.2 5.7 5.4 5.5 5.4 5.3 4.7 4.7 5.4 5.3 5.1 5.0 5.1 5.3 5.4 5.4 6.5 6.8 6.4 6.0 6.2 6.4 6.4 6.2 6.2 6.0 5.7 5.6 5.8 6.2 6.3 6.4 6.5 6.3 6.1 5.8 5.6 5.5 5.4 5.5 5.7 5.8
5.5 5.1 5.6 5.7 5.7 5.9 5.8 5.5 5.1 5.0 5.3 5.4 5.1 4.8 5.1 5.4 5.9 6.0 6.7 7.1 6.8 6.5 6.6 6.7 6.5 6.5 6.4 6.4 5.8 5.9 5.7 5.9 6.2 6.2 6.4 6.4 6.1 6.1 5.9 5.6 5.3 5.4 5.6 5.8
5.7 5.3 5.9 6.0 6.0 5.8 5.8 5.7 5.8 5.4 5.8 5.6 5.7 5.2 5.6 5.9 6.0 6.6 6.9 7.0 6.9 6.9 6.9 7.0 6.9 6.8 6.6 6.7 6.6 6.1 6.4 6.2 6.2 6.3 6.2 6.3 6.3 6.3 6.5 6.5 6.3 6.3 6.2 5.9
6.2 6.3 6.1 6.5 6.3 6.3 6.0 6.3 6.3 6.3 5.9 5.5 5.8 5.7 5.7 5.9 6.0 7.1 7.0 6.7 6.9 6.8 6.7 7.0 7.4 7.5 7.4 6.9 7.3 6.9 6.5 6.5 6.6 6.2 6.1 6.3 6.5 6.4 6.5 6.1 6.0 5.9 5.9 5.8
6.1 6.6 6.8 6.5 6.6 6.7 6.5 6.5 6.5 6.6 6.3 6.2 5.9 5.7 5.9 5.9 6.5 7.4 7.2 7.3 7.1 7.2 7.0 7.3 7.4 7.5 7.3 7.1 7.0 7.7 7.2 6.7 7.0 6.6 6.4 6.1 6.1 6.5 6.3 6.1 5.9 6.0 6.2 6.1
6.8 6.8 6.9 7.0 7.0 6.8 7.1 6.6 6.6 6.7 6.6 6.4 6.0 5.6 5.8 5.9 7.2 7.5 7.6 7.4 7.3 7.1 7.1 7.4 7.8 7.6 7.2 7.3 7.2 7.5 7.9 7.3 7.9 7.4 6.7 6.3 6.2 6.3 6.2 6.5 6.4 6.2 6.0 6.1
6.4 6.5 6.4 6.7 6.7 6.9 6.8 6.6 6.9 6.7 6.7 6.9 7.0 6.4 6.0 6.9 7.4 7.3 7.3 7.5 7.5 7.1 7.1 7.0 7.2 7.2 7.3 7.1 7.1 7.2 7.4 7.5 7.7 7.1 7.0 6.6 6.4 6.3 6.2 6.3 6.3 6.3 6.1 6.1
6.3 6.4 6.6 6.7 6.6 6.9 6.8 7.0 7.3 7.0 6.9 6.2 6.8 6.6 7.0 7.3 7.6 7.5 7.3 7.6 7.4 7.3 7.4 7.2 7.0 6.9 7.4 7.0 7.0 7.2 7.4 7.7 8.0 7.7 7.3 7.0 6.7 6.5 6.5 6.3 6.3 6.3 6.1 6.3
6.6 6.4 6.8 7.0 7.2 7.0 7.0 7.1 7.3 7.3 7.4 6.9 6.9 7.0 7.3 7.5 7.3 7.6 7.6 7.6 7.2 7.3 7.2 7.3 6.9 6.9 7.6 7.2 7.0 6.9 7.0 7.3 7.6 7.9 7.5 6.8 7.3 6.7 6.7 6.6 6.4 6.4 6.1 6.2
7.3 7.1 7.2 7.5 7.5 7.3 7.1 7.4 7.4 7.2 6.4 7.0 6.9 7.0 7.0 7.8 7.7 8.0 7.6 7.4 7.2 7.3 7.2 7.4 7.3 7.3 7.1 7.1 7.5 7.2 7.1 7.1 7.2 7.6 7.4 7.3 7.3 7.2 7.3 6.9 6.7 6.6 6.4 6.3
7.3 7.2 7.1 7.2 7.0 7.2 7.0 6.9 6.9 7.1 7.1 7.0 6.8 7.1 7.4 7.5 7.7 7.9 7.8 7.3 7.4 7.4 7.3 7.3 7.4 7.3 7.2 7.3 7.7 7.0 6.6 6.5 6.7 7.2 7.6 7.4 7.4 7.5 7.6 7.3 7.0 6.8 6.8 6.5
7.0 7.2 7.1 7.3 7.5 7.5 7.6 7.5 7.5 7.3 7.2 7.2 7.4 7.1 7.7 7.4 7.7 8.0 7.7 7.6 7.7 7.6 7.0 7.0 6.8 6.8 6.7 6.7 6.9 7.1 7.0 6.8 6.6 6.7 6.8 7.1 7.0 7.2 6.9 6.8 7.0 7.0 6.9 6.5
6.9 7.0 6.8 7.0 7.3 7.4 7.1 7.0 7.5 7.5 7.3 7.1 6.9 6.6 7.7 7.6 7.5 7.9 7.9 7.8 7.7 7.6 6.9 6.7 6.8 7.2 7.3 7.1 6.7 6.4 6.6 7.0 6.7 6.7 6.6 6.7 6.9 6.9 6.8 7.0 6.9 6.8 6.9 6.7
7.3 7.3 7.1 7.1 7.5 7.6 7.4 7.1 7.4 7.5 7.3 6.6 7.0 6.6 6.9 7.2 7.0 7.2 7.9 7.9 7.9 8.1 7.6 7.6 7.4 7.0 7.1 7.6 7.2 6.5 6.5 6.7 6.8 6.9 6.9 6.8 6.6 6.6 6.7 6.7 6.6 6.7 6.8 7.0
7.0 6.8 6.9 7.1 7.5 7.5 7.1 7.0 7.1 7.1 7.0 7.3 6.7 6.9 6.7 7.1 7.2 7.3 7.3 7.6 7.6 7.5 7.5 7.6 7.5 7.6 7.6 8.1 7.7 7.1 6.7 6.4 6.7 6.9 7.1 6.9 6.8 6.7 6.7 6.7 6.6 6.6 6.8 7.0
6.9 6.8 6.8 6.8 6.9 7.1 7.2 7.3 6.9 6.8 7.0 7.2 7.0 6.7 7.4 7.2 7.4 7.3 6.8 6.6 6.7 7.2 7.4 7.2 7.5 7.6 7.6 7.9 7.9 7.4 6.9 6.8 7.1 6.9 6.7 6.8 6.6 6.6 6.5 6.3 6.3 6.5 6.6 6.8
6.9 6.8 6.8 6.6 6.8 6.9 6.5 6.6 7.2 7.5 7.7 7.6 7.4 7.5 7.6 7.1 7.2 6.9 6.7 6.6 6.5 6.5 6.3 6.6 7.0 7.4 7.4 7.2 7.6 7.4 7.3 7.1 7.0 7.2 6.9 6.5 6.7 6.6 6.6 6.5 6.4 6.4 6.4 6.4
7.1 6.8 6.7 6.5 6.5 5.5 6.6 7.0 7.5 7.9 8.1 8.1 7.6 7.4 7.0 6.9 6.9 6.9 6.9 7.0 6.9 7.0 6.9 6.7 6.5 6.6 6.9 6.9 6.6 6.9 7.3 7.3 7.1 7.0 6.9 7.0 6.6 6.8 6.8 6.6 6.8 6.7 6.5 6.5
6.6 6.9 6.7 6.6 6.1 6.5 6.5 7.2 7.5 7.5 7.8 7.8 7.7 7.8 7.6 7.4 7.1 7.2 7.1 6.9 6.9 7.0 6.9 6.8 6.7 6.4 6.5 6.6 6.7 6.9 7.0 7.3 7.0 7.2 7.5 7.2 7.0 6.6 6.8 7.0 6.9 7.0 7.0 6.9
6.6 6.7 6.8 6.2 6.1 4.1 7.3 7.4 7.8 7.9 7.4 7.7 7.9 7.9 7.9 7.7 7.3 7.2 7.3 7.0 7.0 7.0 6.8 6.9 6.9 6.9 6.9 7.0 6.8 6.8 6.7 7.0 7.1 7.1 7.2 7.4 7.1 6.9 7.3 7.4 7.3 7.2 7.2 7.2
6.8 6.6 6.7 6.8 6.5 6.6 6.8 7.3 7.8 7.4 7.5 8.0 7.9 7.9 7.7 7.3 7.0 6.7 7.1 7.5 7.2 7.2 7.4 7.2 7.1 7.1 7.2 7.0 6.8 6.9 6.9 6.7 6.8 6.9 7.1 7.2 7.1 7.1 6.8 7.2 7.6 7.5 7.5 7.4
7.0 6.7 6.4 6.4 6.0 5.4 7.2 7.0 7.2 7.6 7.4 7.3 7.3 7.2 7.2 7.2 7.1 6.9 6.8 7.0 7.5 7.4 7.5 7.4 7.5 7.5 7.3 7.3 7.4 7.1 7.0 7.0 6.9 6.9 6.9 6.8 6.9 6.8 6.8 6.9 7.1 7.6 7.8 7.7
7.0 7.3 7.1 7.1 6.9 7.2 6.9 7.0 7.0 7.0 6.9 6.7 6.7 6.7 6.8 6.8 6.7 6.7 6.6 6.5 6.5 6.7 6.8 6.8 6.9 7.1 7.1 7.0 7.2 7.4 7.5 7.2 7.1 7.0 6.9 6.7 6.6 6.7 6.7 6.7 7.0 7.3 7.3 7.3
6.9 7.2 7.0 7.1 7.0 7.0 6.9 6.7 6.7 6.7 6.6 6.5 6.4 6.4 6.3 6.3 6.3 6.3 6.3 6.3 6.2 6.3 6.5 6.7 6.6 6.6 6.9 7.1 7.1 7.1 7.1 7.2 7.1 7.0 7.0 7.0 6.9 6.6 6.6 6.6 6.5 6.6 7.0 7.2
7.0 7.1 7.0 6.8 6.6 6.6 6.5 6.6 6.6 6.4 6.3 6.2 6.2 6.2 6.3 6.5 6.6 6.7 6.7 6.6 6.6 6.5 6.4 6.4 6.6 6.7 6.6 6.7 7.0 7.2 7.0 6.8 7.1 6.9 6.7 6.9 6.9 6.8 6.6 6.7 6.8 6.6 6.7 7.1
6.8 7.1 7.0 6.9 7.0 6.7 6.5 6.6 6.4 6.2 6.2 6.4 6.5 6.8 6.8 6.9 7.1 7.2 7.1 6.9 6.6 6.5 6.4 6.2 6.2 6.3 6.4 6.4 6.5 6.7 6.8 6.8 6.9 7.0 6.8 6.6 6.8 7.1 7.0 6.8 6.9 6.9 6.8 7.0
Wind_Speed
7 4 14 14 10 13 2 3 8 6 6 14 13 18 12 11 8 10 13 14 15 12 11 10 11 16 17 18 16 18 15 15 12 11 11 11 13 10 8 14 19 19 19 21
4 14 8 4 8 9 11 11 14 9 7 6 10 17 17 14 14 13 17 17 15 16 14 13 10 11 15 20 20 19 19 18 15 12 12 11 11 10 9 13 16 22 21 23
11 5 11 7 8 8 11 15 12 8 4 10 9 15 16 15 16 17 21 20 18 18 18 13 15 13 16 18 20 19 22 22 20 20 10 8 7 6 7 10 11 15 24 25
8 13 7 11 14 11 15 7 7 9 5 6 7 6 16 9 17 20 17 18 21 21 17 13 12 10 13 19 20 22 21 21 20 20 15 18 15 14 14 14 12 12 23 23
12 10 12 12 14 7 10 7 9 9 9 8 7 5 10 3 10 15 10 10 13 19 21 20 18 16 11 13 18 19 20 20 20 19 21 15 17 13 10 11 15 16 13 23
16 4 9 11 14 11 5 1 4 2 1 10 16 10 12 10 15 12 9 14 18 13 13 17 19 14 9 9 13 18 19 20 20 20 21 21 21 18 13 13 13 12 12 13
6 12 3 3 5 6 5 5 4 5 5 5 9 7 16 16 20 12 18 15 13 10 9 12 11 9 8 9 9 14 17 19 18 20 20 23 22 21 20 17 14 15 12 12
12 5 15 6 10 7 7 10 7 8 5 4 2 7 8 17 18 18 20 21 17 17 14 10 9 9 8 9 9 10 15 18 20 21 22 21 23 16 17 18 15 14 13 14
8 8 5 8 7 10 5 7 12 12 10 3 5 6 14 14 16 10 9 9 10 11 11 8 9 7 6 6 7 8 12 16 18 20 19 21 20 22 20 21 18 14 16 14
4 2 7 8 6 10 15 6 3 3 4 11 7 7 9 9 4 7 8 7 9 8 9 7 6 6 5 5 5 4 7 11 16 17 17 17 20 20 21 18 19 19 18 18
4 3 4 9 8 11 4 11 6 3 4 3 6 6 9 9 5 6 9 10 12 8 6 6 4 4 3 4 4 6 7 7 9 12 14 16 17 18 18 19 18 19 19 17
5 3 4 6 4 6 17 18 15 8 7 4 3 11 3 11 14 14 8 12 10 12 12 12 9 8 6 6 6 7 6 7 9 8 10 14 14 15 17 19 20 18 18 18
10 4 2 7 6 3 5 6 8 5 5 16 9 12 1 9 8 12 11 9 10 9 10 9 9 8 7 8 8 7 7 8 8 7 9 11 14 15 16 18 18 19 18 18
16 4 8 10 5 5 5 5 6 8 7 18 15 25 28 15 7 9 13 15 18 17 15 10 10 8 10 8 8 8 8 8 8 7 9 10 13 15 16 16 16 17 18 18
11 7 6 1 6 2 4 6 10 14 17 9 19 14 25 13 8 13 16 18 18 16 15 16 17 17 16 17 16 10 8 9 9 8 9 12 12 11 12 12 14 15 16 18
3 3 3 1 3 5 9 11 7 6 5 9 9 18 18 15 10 9 9 9 11 13 15 17 17 17 18 19 18 19 18 16 11 10 11 10 9 9 10 11 12 14 14 15
8 6 3 4 3 1 8 7 13 12 8 8 11 22 22 11 11 12 11 12 13 15 16 18 18 17 18 19 18 18 21 22 19 15 9 9 9 10 12 12 11 12 14 14
6 6 3 3 4 3 5 3 4 10 11 8 13 9 11 9 10 6 12 15 15 16 17 18 17 20 19 18 19 20 20 20 20 17 15 10 9 11 10 8 10 13 10 14
7 5 2 4 4 5 6 7 4 6 3 7 5 10 11 14 9 6 15 15 15 16 17 16 16 18 20 20 18 21 19 19 19 17 17 16 11 11 8 9 12 13 10 11
5 4 4 3 5 8 6 2 2 3 4 8 9 10 13 13 3 3 24 24 18 16 17 18 19 18 16 18 18 18 17 18 18 19 20 19 15 10 10 12 12 11 12 14
3 2 8 3 3 7 6 7 6 3 4 6 8 8 10 6 4 14 18 20 18 19 21 20 18 17 18 17 19 21 20 18 18 19 20 19 18 15 12 12 9 10 11 8
7 7 4 3 2 8 5 0 4 3 6 6 7 9 11 13 15 13 13 17 20 20 20 19 19 19 17 17 18 19 21 22 22 22 21 19 18 14 9 9 11 7 8 9
2 6 6 9 6 5 7 13 9 7 3 4 7 9 11 15 16 15 14 14 15 19 19 16 16 20 18 16 16 19 19 20 21 21 22 18 17 14 11 10 10 7 8 10
3 0 4 5 3 8 11 10 8 5 6 6 7 10 12 14 16 17 15 15 15 15 17 16 18 18 20 17 17 17 18 18 19 20 20 19 16 14 12 8 7 9 8 8
2 3 5 5 7 11 8 9 7 5 6 8 9 10 12 14 16 17 16 16 14 15 15 15 16 17 18 18 18 17 17 17 17 17 17 16 14 14 12 10 7 7 9 8
2 3 4 3 5 1 5 6 8 7 8 9 11 12 12 12 14 16 14 14 14 16 16 14 16 16 17 17 17 17 16 17 17 16 13 12 11 11 11 9 8 10 13 11
Wind_Direction
184 180 216 210 208 243 315 221 250 257 289 262 263 279 294 278 255 257 260 262 260 248 242 229 221 209 201 196 194 197 194 199 191 195 191 199 208 203 204 203 199 196 198 200
182 225 212 154 176 208 228 235 254 275 268 336 324 297 290 279 266 252 261 264 261 252 242 239 230 216 205 198 198 202 201 197 198 201 206 205 207 210 205 204 203 201 198 200
213 227 187 209 224 214 231 235 243 242 321 294 302 293 278 268 254 260 260 262 257 251 247 239 234 219 206 207 199 200 203 200 196 202 201 205 202 212 203 204 207 207 203 202
217 234 214 210 230 208 243 200 210 221 222 263 168 286 274 277 276 275 275 258 259 260 253 244 229 226 209 211 205 204 208 202 200 194 198 202 205 208 213 209 210 210 206 204
217 172 197 217 226 170 251 188 228 232 247 256 235 255 283 219 271 268 275 265 256 250 246 243 237 230 212 207 213 208 207 206 199 194 199 205 212 220 216 214 210 208 204 205
226 156 175 201 222 202 217 186 238 200 194 239 237 209 262 259 251 263 259 260 267 268 254 241 238 235 223 202 206 214 210 207 200 198 200 205 210 214 215 213 210 208 206 203
219 233 276 179 177 185 170 155 251 234 212 256 234 202 242 266 254 259 274 266 268 270 259 250 243 233 222 217 206 209 208 208 206 204 203 208 212 212 216 216 212 207 209 208
214 225 202 190 195 174 189 195 220 242 222 269 17 207 245 229 270 264 260 269 268 276 273 248 240 236 231 234 216 202 207 212 209 208 209 210 213 214 216 216 214 215 212 212
185 237 197 184 174 150 206 198 233 256 263 287 235 261 288 269 264 254 281 287 273 281 276 277 270 251 252 248 238 216 218 218 219 218 216 215 214 216 219 219 218 217 216 218
178 205 206 202 144 210 208 149 227 199 243 250 233 224 232 251 275 311 301 326 304 304 304 321 339 344 320 292 295 274 232 229 228 226 225 224 221 219 223 224 222 220 221 218
170 126 275 137 199 187 197 224 220 205 191 255 249 244 226 252 309 320 330 327 319 319 344 341 330 357 347 321 313 295 276 253 239 228 231 232 229 226 226 227 226 222 222 218
172 129 205 230 220 187 207 214 212 223 234 239 304 270 237 288 295 315 334 338 357 351 339 332 331 339 335 305 286 267 267 254 248 242 230 230 233 230 228 227 227 225 224 220
169 211 80 340 324 244 210 195 196 212 243 248 247 260 186 281 320 323 337 343 320 308 313 315 318 309 287 278 267 263 266 258 258 256 248 241 233 230 231 230 227 225 225 224
165 171 202 216 205 173 198 183 204 205 230 248 240 262 276 277 308 321 324 313 306 312 308 289 287 290 299 286 286 279 276 268 265 248 251 250 244 236 231 230 231 227 222 221
168 193 196 191 302 112 200 227 222 216 239 235 264 258 270 288 293 292 286 289 293 322 359 7 2 355 340 335 330 306 276 270 263 250 243 246 249 245 239 236 229 227 224 223
178 165 123 35 197 259 275 257 207 228 242 254 272 269 274 281 270 280 283 19 34 357 355 355 355 353 350 342 334 329 322 302 283 255 250 245 244 239 233 230 226 227 225 225
149 125 115 242 242 91 298 223 227 239 215 228 245 258 280 357 359 23 39 33 9 356 349 346 341 338 338 332 330 329 328 323 313 290 266 244 241 239 236 236 229 222 225 223
126 111 128 189 59 239 241 71 206 213 241 260 263 315 31 359 305 97 46 21 357 348 343 340 336 334 333 327 326 328 328 324 321 314 284 262 244 245 245 233 233 236 230 224
129 122 134 162 203 307 307 267 212 188 224 27 344 360 4 343 304 202 29 9 344 338 333 327 327 326 322 324 328 326 325 325 324 319 306 290 273 259 246 242 243 242 231 232
96 116 151 103 156 210 219 194 31 208 232 26 21 4 356 351 16 322 338 337 332 330 327 324 324 321 322 322 326 322 322 323 321 325 318 309 291 262 258 255 251 245 236 236
105 40 190 183 214 284 255 321 345 108 282 37 28 1 345 341 301 312 313 314 319 319 321 326 324 319 323 327 326 322 322 319 318 315 311 307 299 282 267 262 249 239 239 238
156 153 178 86 79 276 20 252 201 61 59 22 10 352 327 312 311 310 311 310 313 319 325 327 321 323 325 326 323 319 318 319 317 316 310 307 301 292 279 254 259 238 221 231
173 180 175 180 199 62 35 100 90 62 85 15 344 333 321 313 316 321 319 317 323 319 320 321 319 317 319 322 321 314 316 315 317 313 312 308 305 298 284 273 268 254 236 234
156 254 144 129 131 127 110 88 58 49 51 4 343 324 324 317 323 323 325 328 323 323 320 320 324 319 318 321 316 312 315 316 316 309 309 311 311 307 297 282 262 255 245 236
201 99 140 81 87 108 106 59 53 40 20 356 341 337 331 327 325 329 326 324 323 322 320 323 321 320 317 316 317 315 319 322 315 310 305 308 313 311 305 290 267 259 257 245
346 151 156 182 141 142 111 44 47 31 14 2 347 339 338 332 329 331 323 323 324 324 321 323 320 320 320 322 317 318 325 322 315 310 306 306 307 307 304 296 290 256 254 259